Weather History for Norman, OK

Change the Weather History Date:

Thursday, April 3, 2014

  Actual Average Record
Temperature  
Mean Temperature 62 °F -  
Max Temperature 78 °F 73 °F 93 °F (1950)
Min Temperature 44 °F 48 °F 22 °F (1975)
Degree Days  
Heating Degree Days 3    
Growing Degree Days 12 (Base 50)    
Moisture  
Dew Point 56 °F    
Average Humidity 68    
Maximum Humidity 100    
Minimum Humidity 28    
Precipitation  
Precipitation 0.00 in - - ()
Sea Level Pressure  
Sea Level Pressure 29.69 in    
Wind  
Wind Speed 15 mph (WSW)    
Max Wind Speed 28 mph    
Max Gust Speed 39 mph    
Visibility 10 miles    
Events      
Averages and records for this station are not official NWS values.
T = Trace of Precipitation, MM = Missing Value Source: NWS Daily Summary

Daily Weather History Graph

Daily Weather History Graph

Search for Another Location

Airport:

Trip Planner

Search our weather history database for the weather conditions in past years. The results will help you decide how hot, cold, wet, or windy it might be!

Date:

Astronomy

Apr. 03, 2014 Rise Set
Actual Time 7:13 AM CDT 7:52 PM CDT
Civil Twilight 6:48 AM CDT 8:18 PM CDT
Nautical Twilight 6:17 AM CDT 8:48 PM CDT
Astronomical Twilight 5:47 AM CDT 9:19 PM CDT
Moon 9:51 AM CDT (4/3) No Moon Set
Length of Visible Light 13h 30m
Length of Day
12h 39m
Waxing Crescent, 17% of the Moon is Illuminated
Apr 3
Waxing Crescent
Apr 7
First Quarter
Apr 15
Full
Apr 22
Last Quarter
Apr 29
New

Hourly Weather History & Observations

Time (CDT) Temp. Windchill Dew Point Humidity Pressure Visibility Wind Dir Wind Speed Gust Speed Precip Events Conditions
12:35 AM 69.8 °F - 64.4 °F 83% 29.66 in 10.0 mi SSE 13.8 mph - N/A   Clear
12:55 AM 68.0 °F - 64.4 °F 88% 29.65 in 10.0 mi SSE 16.1 mph 24.2 mph N/A   Clear
1:15 AM 68.0 °F - 64.4 °F 88% 29.65 in 10.0 mi SSE 18.4 mph 23.0 mph N/A   Clear
1:35 AM 68.0 °F - 64.4 °F 88% 29.65 in 10.0 mi SSE 17.3 mph 25.3 mph N/A   Clear
1:55 AM 68.0 °F - 64.4 °F 88% 29.64 in 10.0 mi SSE 18.4 mph - N/A   Clear
2:15 AM 68.0 °F - 64.4 °F 88% 29.64 in 10.0 mi South 15.0 mph - N/A   Clear
2:35 AM 68.0 °F - 64.4 °F 88% 29.63 in 10.0 mi SSE 15.0 mph 21.9 mph N/A   Clear
2:55 AM 68.0 °F - 64.4 °F 88% 29.63 in 10.0 mi SSE 16.1 mph - N/A   Scattered Clouds
3:15 AM 68.0 °F - 66.2 °F 94% 29.63 in 10.0 mi South 13.8 mph 20.7 mph N/A   Clear
3:35 AM 68.0 °F - 66.2 °F 94% 29.63 in 10.0 mi SSE 13.8 mph - N/A   Scattered Clouds
3:55 AM 68.0 °F - 68.0 °F 100% 29.63 in 10.0 mi South 16.1 mph 21.9 mph N/A   Overcast
4:15 AM 68.0 °F - 68.0 °F 100% 29.62 in 10.0 mi South 18.4 mph 24.2 mph N/A   Mostly Cloudy
4:35 AM 68.0 °F - 68.0 °F 100% 29.62 in 10.0 mi South 17.3 mph 23.0 mph N/A   Overcast
4:55 AM 68.0 °F - 68.0 °F 100% 29.62 in 10.0 mi South 18.4 mph 26.5 mph N/A   Overcast
5:15 AM 68.0 °F - 68.0 °F 100% 29.62 in 10.0 mi South 16.1 mph 23.0 mph N/A   Overcast
5:35 AM 68.0 °F - 68.0 °F 100% 29.63 in 10.0 mi South 15.0 mph 21.9 mph N/A   Overcast
5:55 AM 69.8 °F - 68.0 °F 94% 29.63 in 10.0 mi South 12.7 mph 21.9 mph N/A   Overcast
6:15 AM 69.8 °F - 68.0 °F 94% 29.63 in 10.0 mi South 13.8 mph - N/A   Overcast
6:35 AM 68.0 °F - 68.0 °F 100% 29.63 in 10.0 mi South 13.8 mph 19.6 mph N/A   Mostly Cloudy
7:15 AM 68.0 °F - 68.0 °F 100% 29.64 in 10.0 mi South 13.8 mph - N/A   Overcast
7:35 AM 68.0 °F - 68.0 °F 100% 29.63 in 10.0 mi South 9.2 mph - N/A   Overcast
7:55 AM 68.0 °F - 68.0 °F 100% 29.63 in 7.0 mi South 11.5 mph 17.3 mph N/A   Mostly Cloudy
8:15 AM 69.8 °F - 68.0 °F 94% 29.62 in 7.0 mi South 11.5 mph - N/A   Scattered Clouds
8:35 AM 69.8 °F - 68.0 °F 94% 29.64 in 10.0 mi South 16.1 mph - N/A   Mostly Cloudy
8:55 AM 69.8 °F - 68.0 °F 94% 29.64 in 10.0 mi South 16.1 mph 21.9 mph N/A   Mostly Cloudy
9:15 AM 71.6 °F - 66.2 °F 83% 29.64 in 10.0 mi SSW 13.8 mph - N/A   Scattered Clouds
9:35 AM 73.4 °F - 66.2 °F 78% 29.64 in 10.0 mi SSW 18.4 mph 25.3 mph N/A   Scattered Clouds
9:55 AM 73.4 °F - 64.4 °F 73% 29.64 in 10.0 mi SW 16.1 mph - N/A   Clear
10:15 AM 75.2 °F - 62.6 °F 65% 29.64 in 10.0 mi SW 13.8 mph 19.6 mph N/A   Clear
10:35 AM 77.0 °F - 60.8 °F 57% 29.65 in 10.0 mi WSW 10.4 mph 16.1 mph N/A   Clear
10:55 AM 78.8 °F - 59.0 °F 51% 29.65 in 10.0 mi WSW 11.5 mph 18.4 mph N/A   Clear
11:15 AM 78.8 °F - 53.6 °F 42% 29.65 in 10.0 mi WSW 13.8 mph - N/A   Clear
11:35 AM 71.6 °F - 59.0 °F 64% 29.67 in 10.0 mi NW 16.1 mph - N/A   Clear
11:55 AM 69.8 °F - 59.0 °F 68% 29.68 in 10.0 mi NW 11.5 mph - N/A   Clear
12:15 PM 68.0 °F - 55.4 °F 64% 29.69 in 10.0 mi WNW 16.1 mph - N/A   Clear
12:35 PM 68.0 °F - 55.4 °F 64% 29.69 in 10.0 mi WNW 15.0 mph 18.4 mph N/A   Clear
12:55 PM 68.0 °F - 55.4 °F 64% 29.69 in 10.0 mi NW 13.8 mph 18.4 mph N/A   Clear
1:15 PM 69.8 °F - 55.4 °F 60% 29.69 in 10.0 mi NW 12.7 mph - N/A   Clear
1:35 PM 69.8 °F - 55.4 °F 60% 29.69 in 10.0 mi WNW 12.7 mph 19.6 mph N/A   Clear
1:55 PM 71.6 °F - 55.4 °F 57% 29.70 in 10.0 mi West 15.0 mph 23.0 mph N/A   Clear
2:15 PM 71.6 °F - 53.6 °F 53% 29.70 in 10.0 mi West 12.7 mph - N/A   Clear
2:35 PM 73.4 °F - 51.8 °F 47% 29.69 in 10.0 mi WNW 13.8 mph 18.4 mph N/A   Clear
2:55 PM 73.4 °F - 50.0 °F 44% 29.69 in 10.0 mi WNW 10.4 mph - N/A   Clear
3:15 PM 73.4 °F - 50.0 °F 44% 29.68 in 10.0 mi West 11.5 mph 16.1 mph N/A   Clear
3:35 PM 73.4 °F - 50.0 °F 44% 29.67 in 10.0 mi West 11.5 mph - N/A   Clear
3:55 PM 75.2 °F - 48.2 °F 38% 29.67 in 10.0 mi WSW 10.4 mph 17.3 mph N/A   Clear
4:15 PM 75.2 °F - 46.4 °F 36% 29.66 in 10.0 mi West 10.4 mph - N/A   Clear
4:35 PM 77.0 °F - 46.4 °F 34% 29.65 in 10.0 mi West 6.9 mph - N/A   Clear
4:55 PM 77.0 °F - 44.6 °F 32% 29.67 in 10.0 mi West 9.2 mph - N/A   Clear
5:15 PM 77.0 °F - 42.8 °F 29% 29.67 in 10.0 mi West 13.8 mph 19.6 mph N/A   Clear
5:35 PM 77.0 °F - 41.0 °F 28% 29.67 in 10.0 mi West 13.8 mph 23.0 mph N/A   Clear
5:55 PM 77.0 °F - 41.0 °F 28% 29.68 in 10.0 mi West 18.4 mph 24.2 mph N/A   Clear
6:15 PM 75.2 °F - 41.0 °F 29% 29.68 in 10.0 mi West 11.5 mph 21.9 mph N/A   Clear
6:35 PM 73.4 °F - 41.0 °F 31% 29.68 in 10.0 mi West 10.4 mph - N/A   Clear
6:55 PM 73.4 °F - 42.8 °F 33% 29.68 in 10.0 mi West 5.8 mph - N/A   Clear
7:15 PM 71.6 °F - 42.8 °F 35% 29.69 in 10.0 mi WNW 8.1 mph - N/A   Clear
7:35 PM 69.8 °F - 42.8 °F 38% 29.70 in 10.0 mi West 5.8 mph - N/A   Clear
7:55 PM 62.6 °F - 42.8 °F 48% 29.75 in 10.0 mi NNW 26.5 mph 33.4 mph N/A   Clear
8:15 PM 59.0 °F - 42.8 °F 55% 29.79 in 10.0 mi NW 24.2 mph 39.1 mph N/A   Clear
8:35 PM 55.4 °F - 41.0 °F 58% 29.82 in 10.0 mi NW 25.3 mph 33.4 mph N/A   Clear
8:55 PM 53.6 °F - 39.2 °F 58% 29.84 in 10.0 mi NNW 27.6 mph 36.8 mph N/A   Clear
9:15 PM 53.6 °F - 37.4 °F 54% 29.87 in 10.0 mi NW 23.0 mph 35.7 mph N/A   Clear
9:35 PM 51.8 °F - 37.4 °F 58% 29.90 in 10.0 mi NW 27.6 mph 34.5 mph N/A   Clear
11:15 PM 46.4 °F 38.3 °F 37.4 °F 71% 29.99 in 10.0 mi NW 23.0 mph 29.9 mph N/A   Clear
11:35 PM 46.4 °F 37.9 °F 35.6 °F 66% 29.99 in 10.0 mi NNW 25.3 mph 31.1 mph N/A   Clear
11:55 PM 44.6 °F 36.6 °F 35.6 °F 71% 29.99 in 10.0 mi NW 19.6 mph 27.6 mph N/A   Clear